Regional Weather Roundup
Issued by NWS

Home | Current Version | Previous Version | Text Only | Print | Product List | Glossary On
Versions: 1 2 3 4 5 6 7 8 9 10 11 12 13 14 15 16 17 18 19 20 21 22 23 24 25 26 27 28 29 30 31 32 33 34 35 36 37 38 39 40 41 42 43 44 45 46 47 48 49 50
000
ASUS43 KTOP 031608
RWRKS

WEATHER ROUNDUP FOR KANSAS
NATIONAL WEATHER SERVICE GOODLAND KS
1100 AM CDT MON AUG 03 2015

NOTE:  "FAIR" INDICATES FEW OR NO CLOUDS BELOW 12,000 FEET WITH NO
SIGNIFICANT WEATHER AND/OR OBSTRUCTIONS TO VISIBILITY.

KSZ001>006-013>018-027>032-041>047-031700-
NORTHWEST KANSAS

CITY           SKY/WX    TMP DP  RH WIND       PRES   REMARKS
GOODLAND       MOSUNNY   83  64  52 E7        30.03S
HAYS           MOSUNNY   84  66  54 E7        29.96S
HILL CITY      SUNNY     84  66  54 E7        29.98S
RUSSELL        MOSUNNY   85  69  58 NE3       29.94F
$$

KSZ061>065-074>080-084>089-031700-
SOUTHWEST KANSAS

CITY           SKY/WX    TMP DP  RH WIND       PRES   REMARKS
DODGE CITY     MOSUNNY   83  63  50 S9        29.99S
ELKHART          N/A     79  64  60 S5          N/A
GARDEN CITY    PTSUNNY   79  67  66 S9        29.99R
GREAT BEND     MOSUNNY   82  68  61 SW6       29.95S
LIBERAL        SUNNY     81  64  57 S9        29.99F
PRATT          MOSUNNY   82  66  57 CALM      29.99R
$$

KSZ066>073-081>083-090>101-031700-
SOUTHEAST KANSAS

CITY           SKY/WX    TMP DP  RH WIND       PRES   REMARKS
CHANUTE        SUNNY     87  66  49 SW10      29.95F
COFFEYVILLE    MOSUNNY   88  69  53 S10       29.95S
HUTCHINSON     MOSUNNY   85  69  58 S9        29.95S
MEDICINE LODGE   N/A     82  69  64 SW9       29.96S
NEWTON         MOSUNNY   82  66  57 SW12      29.98R
PARSONS        SUNNY     87  71  58 VRB7      29.96F
WICHITA INTL   CLOUDY    84  69  60 SW15      29.95S
WICHITA JABRA  MOSUNNY   85  68  56 SW12      29.95S
WICHITA MCCONL MOSUNNY   84  67  57 SW14      29.95F
WINFIELD       PTSUNNY   84  69  60 SW12      29.97S
$$

KSZ007>012-019>026-033>040-048>060-102>105-031700-
NORTHEAST KANSAS

CITY           SKY/WX    TMP DP  RH WIND       PRES   REMARKS
CONCORDIA      SUNNY     82  72  71 NE8       29.97R
EMPORIA        SUNNY     88  65  46 SW12G18   29.95R
LAWRENCE       SUNNY     85  72  65 E6        29.95R
MANHATTAN      SUNNY     87  68  52 W7        29.94S
MARYSVILLE     PTSUNNY   79  72  78 NE12      29.97R
OLATHE IND     MOSUNNY   85  69  58 SW6       29.98R
OLATHE EXE     SUNNY     83  69  62 CALM      29.97R
SALINA         MOSUNNY   87  69  54 VRB5      29.94S
TOPEKA BILLARD SUNNY     85  70  60 S6        29.95S
TOPEKA FORBES  SUNNY     86  69  56 SW7       29.95S
$$


USA.gov is the U.S. government's official web portal to all federal, state and local government web resources and services.